Simultaneous Nadir Overpasses (SNOs) Predictions

Prediction of SNOs between GOES-16 and AQUA Satellite Orbit:

Table of predicted SNOs for the next 14.0 days since TLE Epoch: 6/29/2019
Index Date Time (GOES-16) GOES-16 Lat,Lon AQUA Lat,Lon Distance(km) Time Diff (sec)
1 06/30/2019 06:17:21 -0.02, -75.20 -0.95, -70.91 487.61 80
2 06/30/2019 18:38:45 0.02, -75.20 -0.17, -76.10 102.28 80
3 07/02/2019 18:29:13 0.02, -75.20 0.45, -73.14 234.23 80
4 07/03/2019 06:50:28 -0.02, -75.20 0.67, -78.29 352.42 80
5 07/05/2019 06:38:17 -0.01, -75.21 -0.00, -75.35 15.58 80
6 07/07/2019 06:26:05 0.00, -75.22 -0.62, -72.39 322.47 80
7 07/07/2019 18:44:49 -0.00, -75.23 -0.48, -77.58 267.00 80
8 07/09/2019 18:35:17 -0.01, -75.25 0.14, -74.62 71.72 80
9 07/11/2019 18:23:05 -0.01, -75.27 0.77, -71.66 410.77 80
10 07/12/2019 06:44:21 0.00, -75.28 0.31, -76.82 175.36 80




NCC Satellite Simultaneous Nadir Overpasses (SNOs) Prediction Service
